Location: Caltech
(34.1382°N, 118.1253°W)
Time: 17:31:18
(UTC-07:00)

Cosmos 2084 - Visible Passes

Search period start: 27 March 2017 00:00
Search period end: 06 April 2017 00:00
Orbit: 495 x 691 km, 62.8° (Epoch: 26 March)

Date Brightness Start Highest point End Pass type
(mag) Time Alt. Az. Time Alt. Az. Time Alt. Az.
31 Mar 6.2 06:09:01 10° N 06:11:26 16° NE 06:13:55 10° E visible
03 Apr 3.4 20:35:54 10° S 20:39:46 45° ESE 20:40:15 42° E visible
04 Apr 6.2 05:05:02 10° N 05:07:40 17° NE 05:10:23 10° E visible
04 Apr 3.1 20:44:35 10° SSW 20:48:37 85° WNW 20:52:28 10° NNE visible
05 Apr 5.3 05:13:13 10° N 05:16:43 30° NE 05:20:21 10° ESE visible
05 Apr 4.5 20:53:45 10° SW 20:57:32 41° NW 21:01:12 10° NNE visible
